DB5WY-13 Weather Reports


time (UTC)temp
C
wind
direction
speed
KPH
gust
KPH
rain 1hr
cm
rain 24hr
cm
rain mn
cm
humidity
%
barometer
mb
20260507051949 5 90 0.0 0.0 0.00 18.06 0.00 93 1013.2
20260507050949 5 67 0.0 0.0 0.00 18.06 0.00 93 1012.9
20260507045949 5 22 0.0 0.0 0.00 18.11 0.00 93 1012.7
20260507044949 5 112 0.0 0.0 0.00 18.11 0.00 93 1012.6
20260507043949 5 135 0.0 0.0 0.00 18.11 0.00 93 1012.5
20260507042949 5 90 0.0 0.0 0.00 18.11 0.00 93 1012.5
20260507041949 5 67 0.0 0.0 0.00 18.11 0.00 93 1012.5
20260507040949 5 67 0.0 0.0 0.00 18.11 0.00 93 1012.2
20260507035949 5 90 0.0 0.0 0.00 18.11 0.00 93 1012.3
20260507034949 5 90 0.0 0.0 0.00 18.11 0.00 93 1012.2
20260507033949 5 202 0.0 0.0 0.00 18.11 0.00 93 1012.1
20260507032949 5 90 0.0 0.0 0.00 18.11 0.00 93 1012.3
20260507031949 5 112 0.0 0.0 0.00 18.11 0.00 93 1012.2
20260507030949 5 112 0.0 0.0 0.00 18.11 0.00 93 1012.1
20260507025949 5 67 0.0 0.0 0.00 18.11 0.00 93 1012.2
20260507024949 5 112 0.0 0.0 0.00 18.11 0.00 93 1012.0
20260507023949 5 45 0.0 0.0 0.00 18.11 0.00 93 1012.1
20260507022949 5 45 0.0 0.0 0.00 18.11 0.00 93 1011.9
20260507021949 5 90 0.0 0.0 0.00 18.11 0.00 93 1012.1
20260507020949 5 157 0.0 0.0 0.00 18.11 0.00 93 1012.0
20260507015949 5 67 0.0 0.0 0.00 18.11 0.00 93 1011.9
20260507014949 5 112 0.0 0.0 0.00 18.11 0.00 93 1012.0
20260507013949 5 135 0.0 0.0 0.00 18.11 0.00 93 1011.9
20260507012949 5 112 0.0 0.0 0.00 18.11 0.00 93 1011.6
20260507011949 6 90 0.0 0.0 0.00 18.11 0.00 93 1011.6
20260507010949 6 247 0.0 0.0 0.00 18.11 0.00 93 1011.3
20260507005949 6 67 0.0 0.0 0.00 18.11 0.00 93 1011.5
20260507004949 6 180 0.0 0.0 0.00 18.11 0.00 93 1011.3
20260507003949 6 90 0.0 0.0 0.00 18.11 0.00 93 1011.3
20260507002950 6 112 0.0 0.0 0.00 18.11 0.00 93 1011.3
20260507001950 6 90 0.0 0.0 0.00 18.11 0.00 93 1011.4
20260507000950 6 112 0.0 0.0 0.00 18.11 0.00 93 1011.3
20260506235950 6 135 0.0 0.0 0.00 18.11 0.00 93 1011.3
20260506234950 6 202 0.0 0.0 0.00 18.11 0.00 93 1011.3
20260506233950 6 67 0.0 0.0 0.00 18.11 0.00 93 1011.3
20260506232950 6 90 0.0 0.0 0.00 18.11 0.00 93 1011.3
20260506231950 6 135 0.0 0.0 0.00 18.11 0.00 93 1011.3
20260506230950 6 135 0.0 0.0 0.00 18.11 0.00 93 1011.3
20260506225950 6 202 0.0 0.0 0.00 18.11 0.00 93 1011.1
20260506224950 6 67 0.0 0.0 0.00 18.11 0.00 93 1011.3
20260506223950 6 90 0.0 0.0 0.00 18.11 0.00 93 1011.3
20260506222950 6 337 0.0 0.0 0.00 18.11 0.00 93 1011.2
20260506221950 6 112 0.0 0.0 0.00 18.11 0.00 93 1011.1
20260506220950 6 67 0.0 0.0 0.00 18.11 0.00 93 1010.8
20260506215950 6 157 0.0 0.0 0.00 18.11 0.00 93 1010.9
20260506214950 6 67 0.0 0.0 0.00 18.11 0.00 93 1010.8
20260506213950 6 22 0.0 0.0 0.00 18.11 0.00 93 1011.0
20260506212950 6 112 0.0 0.0 0.00 18.11 0.00 93 1010.9
20260506211950 6 112 0.0 0.0 0.00 18.11 0.00 93 1010.6
20260506210950 6 45 0.0 0.0 0.00 18.11 0.00 93 1010.5
20260506205950 6 90 0.0 0.0 4.39 18.11 0.00 93 1010.6
20260506204950 6 45 0.0 0.0 4.39 18.11 0.00 93 1010.5
20260506203950 6 112 0.0 0.0 4.39 18.11 0.00 93 1010.5
20260506202950 6 135 0.0 0.0 4.39 18.11 0.00 93 1010.3
20260506201950 6 90 0.0 0.0 4.39 18.11 0.00 92 1010.2
20260506200950 6 90 0.0 0.0 4.39 18.11 0.00 92 1010.2
20260506195950 6 112 0.0 0.0 3.86 13.72 0.00 92 1010.1
20260506194950 6 90 0.0 0.0 3.86 13.72 0.00 92 1010.1
20260506193950 6 90 0.0 0.0 3.86 13.72 0.00 92 1009.9
20260506192950 7 90 0.0 0.0 3.86 13.72 0.00 92 1010.0
20260506191950 7 135 0.0 0.0 3.86 13.72 0.00 92 1009.6
20260506190951 7 90 0.0 0.0 3.86 13.72 0.00 92 1009.7
20260506185951 7 67 0.0 0.0 0.00 0.56 0.00 92 1009.3
20260506184951 7 67 0.0 0.0 0.00 0.56 0.00 92 1009.5
20260506183951 7 135 0.0 0.0 0.00 0.56 0.00 92 1009.3
20260506182951 7 45 0.0 0.0 0.00 0.56 0.00 92 1009.2
20260506181951 7 67 0.0 0.0 0.00 0.56 0.00 92 1009.2
20260506180951 7 45 0.0 0.0 0.00 0.56 0.00 92 1009.2
20260506175951 7 45 0.0 0.0 0.41 1.40 0.00 91 1008.9
20260506174951 7 22 0.0 0.0 0.41 1.40 0.00 91 1008.9
20260506173951 7 135 0.0 0.0 0.41 1.40 0.00 91 1009.0
20260506172951 8 135 0.0 0.0 0.41 1.40 0.00 91 1008.8
20260506171951 8 67 0.0 0.0 0.41 1.40 0.00 91 1008.7
20260506170951 8 22 0.0 0.0 0.00 0.97 0.00 91 1008.7
20260506165951 8 157 0.0 0.0 0.00 1.02 0.00 90 1008.7
20260506164951 8 112 0.0 0.0 0.00 1.02 0.00 90 1008.6
20260506163951 8 135 0.0 0.0 0.00 1.02 0.00 90 1008.5
20260506162951 9 112 0.0 0.0 0.00 1.02 0.00 90 1008.4
20260506161951 9 112 0.0 0.0 0.00 1.02 0.00 90 1008.4
20260506160951 9 112 0.0 0.0 0.00 1.02 0.00 90 1008.4
20260506155951 9 45 0.0 91.7 0.00 1.12 0.00 90 1008.5
20260506154951 9 90 0.0 0.0 0.00 1.12 0.00 89 1008.5
20260506153951 9 67 0.0 0.0 0.00 1.12 0.00 88 1008.6
20260506152951 9 22 0.0 0.0 0.00 1.12 0.00 88 1008.3
20260506151951 10 67 0.0 0.0 0.00 1.12 0.00 87 1008.3
20260506150951 10 67 0.0 0.0 0.00 1.12 0.00 86 1008.0
20260506145951 11 112 0.0 91.7 0.00 1.22 0.00 84 1008.0
20260506144951 11 157 0.0 0.0 0.00 1.22 0.00 84 1008.0
20260506143951 11 180 0.0 0.0 0.00 1.22 0.00 85 1007.8
20260506142951 11 67 0.0 0.0 0.00 1.22 0.00 85 1007.6
20260506141951 11 67 0.0 0.0 0.00 1.22 0.00 85 1007.9
20260506140951 11 90 0.0 0.0 0.00 1.22 0.00 85 1007.9
20260506135952 11 22 0.0 0.0 0.00 1.32 0.00 85 1007.8
20260506134952 11 67 0.0 6.4 0.00 1.32 0.00 84 1007.8
20260506133952 12 67 0.0 0.0 0.00 1.32 0.00 84 1007.8
20260506132952 12 112 0.0 0.0 0.00 1.32 0.00 83 1007.7
20260506131952 12 315 0.0 0.0 0.00 1.32 0.00 82 1007.7
20260506130952 13 135 0.0 0.0 0.00 1.32 0.00 81 1007.5
20260506125952 13 112 0.0 0.0 0.00 1.32 0.00 80 1007.5
20260506124952 14 45 0.0 0.0 0.00 1.32 0.00 77 1007.5
20260506123952 15 45 0.0 0.0 0.00 1.32 0.00 75 1007.4
20260506122952 15 22 0.0 0.0 0.00 1.32 0.00 75 1007.3
20260506121952 15 90 0.0 0.0 0.00 1.32 0.00 76 1007.4
20260506120952 15 157 0.0 0.0 0.00 1.32 0.00 77 1007.3
20260506115952 14 247 0.0 6.4 0.00 1.32 0.00 77 1007.2
20260506114952 13 180 0.0 9.7 0.00 1.32 0.00 77 1007.2
20260506113952 13 225 9.7 9.7 0.00 1.32 0.00 77 1007.2
20260506112952 14 247 4.8 8.0 0.00 1.32 0.00 76 1007.3
20260506111952 14 180 0.0 0.0 0.00 1.32 0.00 78 1007.2
20260506110952 13 337 0.0 8.0 0.00 1.32 0.00 78 1007.3
20260506105952 14 225 0.0 8.0 0.00 1.32 0.00 77 1007.1
20260506104952 15 225 0.0 0.0 0.00 1.32 0.00 80 1007.2
20260506103952 13 157 0.0 0.0 0.00 1.32 0.00 82 1007.2
20260506102952 12 90 0.0 4.8 0.00 1.32 0.00 81 1007.1
20260506101952 13 202 0.0 8.0 0.00 1.32 0.00 79 1007.1
20260506100952 14 225 0.0 8.0 0.00 1.32 0.00 76 1007.1
20260506095952 15 247 0.0 6.4 0.05 1.32 0.00 75 1007.1
20260506094952 15 45 0.0 6.4 0.05 1.32 0.00 74 1006.9
20260506093952 16 292 0.0 9.7 0.05 1.32 0.00 73 1006.9
20260506092952 17 225 0.0 9.7 0.05 1.32 0.00 75 1007.0
20260506091952 16 67 0.0 11.3 0.05 1.32 0.00 79 1006.8
20260506090952 13 67 0.0 0.0 0.05 1.32 0.00 84 1006.9
20260506085952 12 337 0.0 0.0 0.00 1.27 0.00 85 1006.8
20260506084952 12 247 0.0 0.0 0.00 1.27 0.00 85 1006.8
20260506083953 12 180 0.0 6.4 0.00 1.27 0.00 85 1006.7
20260506082953 12 337 0.0 0.0 0.00 1.27 0.00 86 1006.6
20260506081953 12 337 0.0 0.0 0.00 1.27 0.00 88 1006.6
20260506080953 12 337 0.0 0.0 0.00 1.27 0.00 89 1006.7
20260506072953 11 337 0.0 0.0 0.00 1.27 0.00 92 1006.7
20260506071953 11 202 0.0 0.0 0.00 1.27 0.00 93 1006.6
20260506070953 11 225 0.0 6.4 0.00 1.27 0.00 94 1006.6
20260506061953 9 180 0.0 0.0 0.00 1.27 0.00 94 1006.5
20260506060953 9 247 0.0 0.0 0.05 1.27 0.00 94 1006.4